Flag for U.S.A. Weather past 2 weeks in Moreno Valley, California, U.S.A.

Now
55 °F

Partly sunny.


Feels Like: 53 °F
Forecast: 46 / 55 °F
Wind: 8 mph from West

Location: Riverside / March Air Force Base

Current Time: Feb 28, 2015 at 12:15:25 PM

Latest Report: Feb 28, 2015 at 11:58 AM


Visibility: 10 mi

Pressure: 29.85 "Hg

Humidity: 69%

Dew point: 45 °F

Location of Moreno ValleyLocation

Historic Weather in Moreno Valley — Graph

°F

Moreno Valley temperature yesterday

Maximum temperature yesterday: 60 °F (at 1:58 PM)
Minimum temperature yesterday: 40 °F (at 3:58 AM)
Average temperature yesterday: 52 °F

Past Weeks' High & Low Weather Summary

 TemperatureHumidityPressure
High83 °F (Feb 13, 2:58 PM)100% (Feb 16, 11:58 PM)30.23 "Hg (Feb 16, 11:58 PM)
Low33 °F (Feb 25, 5:58 AM)10% (Feb 13, 4:58 PM)29.74 "Hg (Feb 27, 7:58 PM)
Average55 °F68%29.99 "Hg
* Reported Feb 13 10:58 AM — Feb 28 10:58 AM, Moreno Valley, Weather by CustomWeather, © 2015

Note: Actual official high and low records may vary slightly from our data, if they occured in-between our weather recording intervals... More about our weather records

Advertising

Moreno Valley weather history for previous 24 hours

 ConditionsComfort  
Time TempWeatherWind HumidityBarometerVisibility
10:58 AM
Sat, Feb 28
54 °FScattered clouds.6 mph73%29.86 "Hg10 mi
9:58 AM55 °FPartly sunny.7 mph57%29.85 "Hg10 mi
8:58 AM54 °FOvercast.6 mph58%29.85 "Hg10 mi
7:58 AM52 °FSunny.8 mph75%29.82 "Hg10 mi
6:58 AM46 °FSunny.3 mph97%29.79 "Hg10 mi
5:58 AM48 °FMostly cloudy.No wind99%29.78 "Hg10 mi
4:58 AM48 °FFog.2 mph100%29.76 "Hg5 mi
3:58 AM51 °FMostly cloudy.No wind100%29.75 "Hg10 mi
3:03 AM50 °FMostly cloudy.No wind100%29.76 "Hg10 mi
1:58 AM50 °FPassing clouds.2 mph99%29.76 "Hg10 mi
12:58 AM51 °FPartly cloudy.3 mph99%29.76 "Hg10 mi
11:58 PM
Fri, Feb 27
50 °FPassing clouds.7 mph98%29.75 "Hg10 mi
10:58 PM54 °FMostly cloudy.No wind97%29.75 "Hg10 mi
9:58 PM55 °FMostly cloudy.3 mph77%29.75 "Hg10 mi
8:58 PM54 °FMostly cloudy.6 mph87%29.76 "Hg10 mi
7:58 PM54 °FMostly cloudy.5 mph83%29.74 "Hg10 mi
6:58 PM55 °FOvercast.No wind85%29.75 "Hg10 mi
5:58 PM55 °FPartly cloudy.3 mph81%29.74 "Hg10 mi
4:58 PM58 °FBroken clouds.5 mph70%29.75 "Hg10 mi
3:58 PM58 °FScattered clouds.7 mph68%29.75 "Hg10 mi
2:58 PM59 °FPartly sunny.8 mph66%29.77 "Hg10 mi
1:58 PM60 °FOvercast.8 mph61%29.77 "Hg10 mi
12:58 PM59 °FPartly sunny.2 mph62%29.78 "Hg10 mi
Weather by CustomWeather, © 2015

See weather overviewHow to use our weather pages